Regional Weather Roundup
Issued by NWS

Home | Current Version | Previous Version | Text Only | Print | Product List | Glossary On
Versions: 1 2 3 4 5 6 7 8 9 10 11 12 13 14 15 16 17 18 19 20 21 22 23 24 25 26 27 28 29 30 31 32 33 34 35 36 37 38 39 40 41 42 43 44 45 46 47 48 49 50
000
ASUS43 KTOP 182059
RWRKS

WEATHER ROUNDUP FOR KANSAS
NATIONAL WEATHER SERVICE GOODLAND KS
300 PM CST WED JAN 18 2017

NOTE:  "FAIR" INDICATES FEW OR NO CLOUDS BELOW 12,000 FEET WITH NO
SIGNIFICANT WEATHER AND/OR OBSTRUCTIONS TO VISIBILITY.

KSZ001>006-013>018-027>032-041>047-182200-
NORTHWEST KANSAS

CITY           SKY/WX    TMP DP  RH WIND       PRES   REMARKS
GOODLAND       CLOUDY    45  34  65 S10       29.82F
HAYS           PTSUNNY   57  42  57 S21G26    29.87F
HILL CITY        N/A     53  41  63 MISG      29.88F
$$

KSZ061>065-074>080-084>089-182200-
SOUTHWEST KANSAS

CITY           SKY/WX    TMP DP  RH WIND       PRES   REMARKS
DODGE CITY     SUNNY     55  41  59 S23       29.88F
ELKHART          N/A     51  34  52 S13         N/A
GARDEN CITY    PTSUNNY   52  41  66 S22       29.86F
GREAT BEND     SUNNY     56  41  57 S21       29.89F
LIBERAL        MOSUNNY   54  41  62 SW18      29.89F
$$

KSZ066>073-081>083-090>101-182200-
SOUTHEAST KANSAS

CITY           SKY/WX    TMP DP  RH WIND       PRES   REMARKS
CHANUTE        CLOUDY    48  40  73 SE7       30.04F
COFFEYVILLE    CLOUDY    51  40  65 NE3       30.03F
HUTCHINSON     SUNNY     56  35  45 SE20G26   29.95F
MEDICINE LODGE   N/A     53  39  59 S10       29.94F
NEWTON         SUNNY     53  36  52 S15       29.97F
PARSONS        CLOUDY    49  39  68 S3        30.04F
WICHITA INTL   MOSUNNY   54  41  61 S16       29.97F
WICHITA JABRA  MOSUNNY   54  39  57 S13       29.97F
WINFIELD       CLOUDY    54  35  48 SE8       30.01F
$$

KSZ007>012-019>026-033>040-048>060-102>105-182200-
NORTHEAST KANSAS

CITY           SKY/WX    TMP DP  RH WIND       PRES   REMARKS
CONCORDIA      SUNNY     53  38  56 S16       29.92F
EMPORIA        MOSUNNY   53  32  44 S15       29.99F
LAWRENCE       SUNNY     49  38  65 SE10      30.03F
MANHATTAN      SUNNY     59  31  34 S9        29.95F
OLATHE IND     SUNNY     48  38  68 SE12      30.04F
OLATHE EXE     SUNNY     48  42  80 S9        30.03F
SALINA         SUNNY     55  39  54 S18G28    29.94F
TOPEKA BILLARD SUNNY     55  34  45 S9        30.00F
TOPEKA FORBES  SUNNY     57  35  43 S12       29.99F
$$



USA.gov is the U.S. government's official web portal to all federal, state and local government web resources and services.